Location: Bouchavesnes-Bergen
(49.9859°N, 2.9203°E)
Time: 11:40:27
(UTC+00:00)

Geosat - Pass Details

Date: 09 March 2021
Orbit: 763 x 765 km, 108.0° (Epoch: 12 April)

Event Time Altitude Azimuth Distance (km) Brightness Sun altitude
Rises 05:24:43 0° 26° (NNE) 3,244 7.7 -8.9°
Reaches altitude 10° 05:27:05 10° 20° (NNE) 2,314 6.8 -8.5°
Maximum altitude 05:31:50 43° 310° (NW) 1,072 4.5 -7.7°
Drops below altitude 10° 05:36:33 10° 240° (WSW) 2,302 5.9 -7.0°
Enters shadow 05:38:18 - 235° (SW) 2,986 6.6 -6.7°
